Location: Miles
(41.4492°N, 81.6087°W)
Time: 22:28:04
(UTC+00:00)

Courier 1B Rocket - Pass Details

Date: 20 September 2024
Orbit: 920 x 1201 km, 28.2° (Epoch: 09 October)

Event Time Altitude Azimuth Distance (km) Brightness Sun altitude
Rises 21:55:58 0° 252° (WSW) 3,625 9.8 15.9°
Reaches altitude 10° 21:59:03 10° 239° (WSW) 2,716 9.1 15.4°
Maximum altitude 22:04:09 24° 187° (S) 1,955 7.0 14.4°
Drops below altitude 10° 22:09:31 10° 137° (SE) 2,869 7.2 13.5°
Sets 22:12:53 0° 124° (SE) 3,876 7.7 12.8°
